{"data":{"norad_id":59435,"intl_designator":"2024-065Q","name":"STARLINK-31696","alt_names":[],"object_type":"PAYLOAD","status":"ACTIVE","operator":null,"country":"US","launch_date":"2024-04-07","launch_site_code":"AFWTR","launch_vehicle":null,"mission":null,"orbit_class":"UNKNOWN","rcs_meters":null,"size_class":null,"mass_kg":null,"dimensions":null,"purposes":["comms"],"wikipedia_slug":null,"has_3d_model":false,"image_url":null,"decayed_at":null,"tle_current":{"epoch":"2026-05-25T03:00:37.882080Z","epoch_age_seconds":60209,"freshness":"FRESH","line1":"1 59435U 24065Q   26145.12543845  .00000837  00000+0  40386-4 0  9995","line2":"2 59435  53.1613 286.5257 0001176  87.1594 272.9542 15.30197078120635","mean_motion":15.30197078,"eccentricity":0.0001176,"inclination_deg":53.1613,"raan_deg":286.5257,"arg_perigee_deg":87.1594,"mean_anomaly_deg":272.9542,"bstar":4.0386e-5,"rev_number":12063,"period_min":94.105525406055,"perigee_km":474.41783876914,"apogee_km":476.02974922789,"semimajor_km":6853.3607939985,"source":"CELESTRAK","updated_at":"2026-05-25T13:38:18.946698Z"}}}